Location: Hickory_Viewmont
(35.7830°N, 81.3170°W)
Time: 14:23:48
(UTC-05:00)

Daily predictions for brighter satellites

Satellite Brightness Start Highest point End
(mag) Time Altitude Azimuth Time Altitude Azimuth Time Altitude Azimuth
Nadezhda 1 Rocket 3.9 18:33:45 10° N 18:39:51 81° E 18:45:55 10° S
Cosmos 1140 Rocket 3.8 18:39:41 10° S 18:44:29 42° ESE 18:49:19 10° NNE
DELTA 2 R/B (1) 3.7 18:39:14 10° WNW 18:44:51 69° NNE 18:50:26 10° E
Cosmos 1461 2.8 18:41:13 10° NNW 18:45:14 70° ENE 18:49:21 10° SE
Cosmos 1602 4.3 18:44:15 10° SSE 18:47:47 35° E 18:51:22 10° NNE
Resurs 01 Rocket 3.0 18:45:25 10° ESE 18:48:28 19° ENE 18:51:32 10° NNE
CENTAUR R/B 4.2 18:40:56 10° NW 18:48:39 51° WSW 18:56:39 10° S
Cosmos 1300 Rocket 4.1 18:45:14 10° SSE 18:49:16 37° E 18:53:22 10° NNE
OAO 3 Copernicus 4.4 18:46:33 10° W 18:51:39 76° S 18:56:42 10° ESE
Cosmos 2292 Rocket 4.2 18:47:18 10° S 18:52:09 71° E 18:58:46 10° N
Cosmos 614 Rocket 4.5 18:47:44 10° SSE 18:52:22 37° E 18:57:01 10° NE
Cosmos 1833 4.2 18:48:37 10° SSW 18:54:18 74° ESE 18:59:57 10° NNE
Abrixas rocket 3.4 18:51:29 10° SSW 18:54:23 28° SE 18:56:51 13° E
ALOS 3.0 18:52:13 10° SE 18:56:18 31° ENE 19:00:25 10° N
COSMO-SKYMED 1 3.8 18:52:55 10° N 18:57:05 46° WNW 19:01:14 10° SSW
Cosmos 2181 Rocket 4.2 18:53:47 10° N 18:59:50 49° E 19:05:57 10° SSE
Spot 2 Rocket 4.4 18:56:34 10° SE 19:00:46 27° ENE 19:05:00 10° NNE
FREGAT/IRIS 2.7 19:00:57 10° SSE 19:03:56 52° ENE 19:06:58 10° N
NOSS 8 (E) 4.4 19:01:20 10° SSW 19:04:47 70° ESE 19:08:22 10° NE
SL-16 R/B 2.8 18:59:52 10° NNW 19:05:28 62° WSW 19:11:02 10° S
Cosmos 1340 2.6 19:04:22 10° N 19:08:08 61° E 19:11:51 10° SSE
Cosmos 1709 Rocket 4.0 19:05:15 10° S 19:11:30 90° W 19:17:42 10° N
Cosmos 1850 Rocket 4.2 19:06:32 10° S 19:11:34 48° ESE 19:16:42 10° NNE
Cosmos 2074 Rocket 4.5 19:06:06 10° SSE 19:11:43 36° E 19:17:22 10° NNE
Cosmos 2184 Rocket 4.5 19:08:57 10° SSE 19:14:39 37° E 19:20:20 10° NNE
FengYun 1-2 T 4.3 19:13:00 10° SSE 19:18:18 53° ENE 19:23:39 10° N
NOSS 8 (H) 4.3 19:15:29 10° SSW 19:18:53 70° ESE 19:21:50 13° NE
Cosmos 1954 Rocket 4.5 19:14:03 10° SSW 19:19:10 64° WNW 19:24:22 10° N
Helios 1B rocket 3.5 19:18:13 18° ENE 19:19:50 23° E 19:23:09 10° SSE
HJ-1C 3.5 19:17:48 10° SSE 19:21:05 52° ENE 19:24:22 10° N
OTV 4 2.8 19:20:26 10° S 19:21:31 12° SSE 19:21:31 12° SSE
Cosmos 2322 Rocket 3.5 19:16:33 10° NW 19:21:48 42° WSW 19:27:03 10° S
SJ-6B 2.8 19:18:22 10° SSE 19:22:24 86° W 19:26:22 10° NNW
Okean 1 Rocket 3.0 19:19:33 10° S 19:24:01 73° E 19:28:30 10° N
Tiangong 2 1.6 19:21:53 10° WNW 19:24:53 52° SSW 19:26:31 23° SE
FENGYUN 3A 3.6 19:20:47 10° SSE 19:26:07 65° ENE 19:31:29 10° N
Genesis I 4.2 19:24:12 10° N 19:27:38 28° NE 19:28:05 27° ENE
Meteor 1-19 Rocket 4.2 19:24:24 10° N 19:30:07 79° E 19:35:54 10° SSE
Hubble Space Telescope 2.7 19:27:58 10° SSW 19:30:27 16° SSE 19:31:23 15° SE
Gbstr 26 Del rocket 3.6 19:30:41 10° WSW 19:34:22 43° NW 19:36:53 18° NNE
Cosmos 2322 3.6 19:32:31 10° NNW 19:38:16 82° ENE 19:43:58 10° SSE
Cosmos 1238 Rocket 2.9 19:36:15 10° NNW 19:39:08 51° W 19:42:05 10° S
Atlas Centaur 2 4.4 19:40:48 10° S 19:42:42 11° SSE 19:43:34 11° SE
CZ-2D R/B 3.4 19:43:32 47° E 19:43:41 47° ENE 19:47:22 10° N
GPS 2-04 Rocket1 3.0 19:41:13 10° WSW 19:45:28 62° SSE 19:46:29 46° ESE
Cosmos 2285 Rocket 4.4 19:39:42 10° N 19:45:43 40° ENE 19:47:51 31° ESE
GEOS 3 Rocket 3.9 19:41:08 10° NNE 19:46:20 67° NW 19:51:35 10° SW
Cosmos 1025 Rocket 3.1 19:42:36 10° N 19:46:54 54° E 19:48:42 32° SE
H-2A R/B 2.5 19:46:26 20° SSE 19:48:56 80° ENE 19:52:41 10° N
Cosmos 1536 3.2 19:45:46 10° SSW 19:49:43 64° W 19:53:41 10° N
SL-19 R/B 4.3 19:45:46 10° SSE 19:51:23 90° N 19:57:21 10° NNW
Okean 1-7 Rocket 3.5 19:48:36 10° N 19:53:09 89° E 19:57:36 10° S
COSMOS 2428 2.7 19:48:01 10° NNW 19:53:37 56° ENE 19:55:38 37° ESE
Meteor 1-23 Rocket 4.1 19:48:05 10° N 19:53:53 73° E 19:59:35 10° SSE
Cosmos 2237 4.1 19:48:11 10° NNW 19:53:54 73° ENE 19:57:28 24° SSE
Cosmos 2333 4.4 19:49:25 10° N 19:54:59 50° ENE 19:56:21 41° ESE
Meteor 2-4 Rocket 3.6 19:50:40 10° N 19:56:12 86° W 20:01:35 10° S
SL-08 ROCKET BODY 4.5 19:50:30 10° S 19:56:39 83° W 20:02:53 10° N
Cosmos 2237 Rocket 3.8 19:53:21 10° N 19:55:53 18° NE 19:55:53 18° NE
Cosmos 2219 3.7 20:05:29 10° SW 20:11:08 60° WNW 20:16:50 10° NNE
Cosmos 2360 Rocket 3.3 20:07:21 10° NW 20:12:38 42° WSW 20:17:55 10° S
Cosmos 2219 Rocket 2.7 20:09:15 10° N 20:13:35 41° NE 20:13:35 41° NE
Cosmos 2227 Rocket 4.0 20:12:05 10° S 20:13:25 17° S 20:13:25 17° S
Cosmos 1570 Rocket 4.5 20:16:06 10° NNW 20:21:14 59° WSW 20:24:14 24° S
Resurs 01 Rocket 3.2 20:20:41 10° SSW 20:24:40 34° W 20:28:41 10° NNW
DELTA 2 R/B (1) 4.0 20:25:50 10° WNW 20:31:15 52° SSW 20:31:31 51° SSW
ATLAS CENTAUR R/B 3.6 20:28:19 10° SW 20:30:46 25° WSW 20:30:46 25° WSW
BREEZE-M DEB (TANK) 4.3 20:30:14 10° NW 20:34:22 66° NE 20:35:01 63° ENE
Helios 1A 4.5 20:40:56 34° WNW 20:40:56 34° WNW 20:43:45 10° NNW
Cosmos 2333 Rocket 3.2 20:42:45 10° NNW 20:46:14 38° N 20:46:14 38° N
USA 229 DEB 3.7 20:47:17 10° NNW 20:54:28 81° WSW 20:54:32 81° SW
USA 229 3.7 20:47:23 10° NNW 20:54:34 82° WSW 20:54:36 82° WSW
